STARLINK-38217, 100170

Orbit data source: Space-Track

STARLINK-38217, 100170 is a payload satellite owned by SpaceX/Seattle (US) in SSO that was launched on Sat, 25 Jul 2026 UTC launched from the Air Force Western Test Range (AFWTR). Payload-class satellites include a variety of spacecraft equipped with specific instruments for various scientific and technological missions. These include communications satellites like Starlink; space stations such as the ISS; scientific satellites like the Hubble; Earth observation satellites from companies like Planet Labs, Umbra, and HawkEye 360; GPS; miniature CubeSats for education and research; and military/defense satellites.

Loading next visibility...
Identifier
100170, 2026-171Y
Orbit
SSO
Country
Flag of USUS
Related business
Manufacturer
SpaceX/Seattle
Mission
Operational spacecraft
Bus & Motor
STARLINK V2MO, Unknown motor
Mass
575 kg wet, ~530 kg dry
Launch date (UTC)
2026-07-25 (3 weeks ago)
Launch vehicle
Unknown
Launch site
Air Force Western Test Range (AFWTR)
Object type
Payload
Rocket body
Debris
Shape & HBR
BOX + PAN, 17.7 m
Radar Cross Section
RCS unknown

Expand to show TLE details & history
Last TLE update: 9 hours ago

TLE from 9 hours ago
0 STARLINK-38217
1 A0170U 26171Y   26227.84507049  .00176932  00000-0  11618-2 0  9998
2 A0170  97.2836 259.7591 0001439  84.3829 275.7601 15.75206904  3363
Epoch: 2026-08-15T20:16Z
TLE epoch observation values (Epoch: 2026-08-15T20:16:54.090Z)
Latitude
0.00005°
Longitude
-8.71639°
Altitude
347.114 km
Speed
7.701 km/s
True Right ascension
17h 19m 02s
True Declination
0° 00' 00"
Sunlit
Object was in full shadow at epoch
Visualization orbit readout
Latitude
Unknown
Longitude
Unknown
Altitude
Unknown
Speed
Unknown
Apparent Right ascension
Unknown
Apparent Declination
Unknown
Sunlit
N/A
Visualization observer readout
Local Sidereal Time
19:48:32
Azimuth
Unknown
Elevation
Unknown
Doppler factor
Unknown
Orbital elements
Apogee altitude
341.897 km
Perigee altitude
339.963 km
Semi-major axis
6,719.067 km
Eccentricity
0.00014
Inclination
97.2836°
RAAN
259.7591°
Arg. of periapsis
84.3829°
True anomaly
275.74369°
Mean anomaly
275.7601°
Eccentric anomaly
275.7519°
Mean motion
3.94076 °/min
Orbital period
91.35 mins
BSTAR
0.0011618
Loading maneuver chart data...
Computing Atmospheric mass density...
Loading historical data...
Loading historical data...
Loading historical data...
Loading historical data...
Loading historical data...
Loading historical data...
Loading historical data...

Documentation

Showing up to 5 results
|